Regional Weather Roundup
Issued by NWS

Home | Current Version | Previous Version | Graphics & Text | Print | Product List | Glossary On
Versions: 1 2 3 4 5 6 7 8 9 10 11 12 13 14 15 16 17 18 19 20 21 22 23 24 25 26 27 28 29 30 31 32 33 34 35 36 37 38 39 40 41 42 43 44 45 46 47 48 49 50
000
ASUS43 KOAX 260402
RWRNE

WEATHER ROUNDUP FOR NEBRASKA
NATIONAL WEATHER SERVICE OMAHA NE
1100 PM CDT THU MAY 25 2017

NOTES: SATELLITE DATA IS BEING USED TO AUGMENT CLOUD COVER ABOVE
       12000 FEET.
       "FAIR" INDICATES FEW OR NO CLOUDS BELOW 12,000 FEET WITH NO
       SIGNIFICANT WEATHER AND/OR OBSTRUCTIONS TO VISIBILITY.

  * THESE STATIONS DO NOT REPORT WEATHER SUCH AS RAIN...SNOW OR FOG.

NEZ001>004-019>022-054>056-260500-
NEBRASKA PANHANDLE

CITY           SKY/WX    TMP DP  RH WIND       PRES   REMARKS
SCOTTSBLUFF    MOCLDY    56  51  84 CALM      29.78R
ALLIANCE       CLOUDY    50  49  96 W6        29.77R
CHADRON        MOCLDY    55  41  59 NE10G21   29.78R
SIDNEY         CLOUDY    51  49  92 W8        29.80R
$$

NEZ057>060-069>072-079>082-260500-
SOUTHWEST NEBRASKA

CITY           SKY/WX    TMP DP  RH WIND       PRES   REMARKS
NORTH PLATTE   MOCLDY    57  56  96 W7        29.70R
IMPERIAL       PTCLDY    59  54  83 NW10      29.74R
LEXINGTON      MOCLDY    65  57  76 E6        29.65S
MCCOOK         MOCLDY    63  52  67 MISG      29.64R
$$

NEZ005>010-023>029-035>040-094-260500-
NORTH CENTRAL NEBRASKA

CITY           SKY/WX    TMP DP  RH WIND       PRES   REMARKS
VALENTINE      CLOUDY    56  47  71 NW5       29.71R
BROKEN BOW     MOCLDY    62  56  80 E3        29.66R
ORD            MOCLDY    60  54  80 S5        29.65R
$$

NEZ041-046>049-061>064-073>077-083>087-260500-
SOUTH CENTRAL NEBRASKA

CITY           SKY/WX    TMP DP  RH WIND       PRES   REMARKS
GRAND ISLAND   MOCLDY    65  58  78 S6        29.66R
HASTINGS       CLOUDY    68  57  68 SW3       29.67R
KEARNEY *      MOCLDY    66  54  63 CALM      29.67S
$$

NEZ011>018-030>034-042>045-260500-
NORTHEAST NEBRASKA

CITY           SKY/WX    TMP DP  RH WIND       PRES   REMARKS
NORFOLK        CLOUDY    65  52  62 S8        29.63R
ALBION         CLOUDY    60  54  79 CALM      29.65R
BLAIR          CLOUDY    67  55  64 SE9       29.65R
TEKAMAH        CLOUDY    65  55  70 SE9       29.64R
$$

NEZ050>053-065>068-078-088>093-260500-
SOUTHEAST NEBRASKA

CITY           SKY/WX    TMP DP  RH WIND       PRES   REMARKS
LINCOLN        CLOUDY    70  56  61 SE8       29.65R
OMAHA EPPLEY   PTCLDY    67  54  63 SE9       29.65R
FALLS CITY     CLOUDY    67  56  67 E9        29.64S
$$

NEZ044-045-051>053-067-260500-
OMAHA AREA

CITY           SKY/WX    TMP DP  RH WIND       PRES   REMARKS
OMAHA EPPLEY   PTCLDY    67  54  63 SE9       29.65R
BLAIR          CLOUDY    67  55  64 SE9       29.65R
OFFUTT AFB     CLOUDY    65  55  68 E6        29.64R
WAHOO          CLOUDY    67  55  66 SE8       29.64R
$$




USA.gov is the U.S. government's official web portal to all federal, state and local government web resources and services.